Photometre #359[Standard_N] Warsaw_UW AOT

File : 20200923_359.hum

23/09/2020,05:23:20,TEMP=12.9,BA=5.60,STAT.A=5.0,ExtBa=13.60
23/09/2020,05:27:34,TEMP=13.3,BA=5.60,STAT.A=5.0,ExtBa=13.60
23/09/2020,05:32:32,TEMP=13.5,BA=5.60,STAT.A=5.0,ExtBa=13.60
23/09/2020,05:38:27,TEMP=13.9,BA=5.60,STAT.A=5.0,ExtBa=13.70
23/09/2020,05:45:37,TEMP=14.4,BA=5.60,STAT.A=5.0,ExtBa=14.00
23/09/2020,05:54:29,TEMP=15.0,BA=5.60,STAT.A=5.0,ExtBa=14.10
23/09/2020,06:05:45,TEMP=15.8,BA=5.60,STAT.B=5.0,ExtBa=14.40
23/09/2020,06:14:29,TEMP=16.7,BA=5.56,STAT.A=5.0,ExtBa=13.90
23/09/2020,06:17:34,TEMP=16.9,BA=5.56,STAT.A=5.0,ExtBa=14.20
23/09/2020,06:24:11,TEMP=17.2,BA=5.60,STAT.A=5.0,ExtBa=14.50
23/09/2020,06:32:07,TEMP=17.9,BA=5.60,STAT.A=5.0,ExtBa=14.60
23/09/2020,06:41:18,TEMP=18.7,BA=5.60,STAT.C=5.0,ExtBa=14.50
23/09/2020,06:54:56,TEMP=19.7,BA=5.56,STAT.A=5.0,ExtBa=14.10
23/09/2020,07:05:03,TEMP=20.4,BA=5.60,STAT.A=5.0,ExtBa=14.60
23/09/2020,07:20:56,TEMP=21.8,BA=5.60,STAT.A=5.0,ExtBa=14.60
23/09/2020,07:28:51,TEMP=22.4,BA=5.60,STAT.F,ExtBa=14.60
23/09/2020,07:43:48,TEMP=22.9,BA=5.56,STAT.D=5.0,ExtBa=14.50
23/09/2020,07:58:49,TEMP=23.6,BA=5.60,STAT.D=5.0,ExtBa=14.60
23/09/2020,08:13:49,TEMP=24.7,BA=5.60,STAT.D=5.0,ExtBa=14.60
23/09/2020,08:28:51,TEMP=25.7,BA=5.60,STAT.F,ExtBa=14.50
23/09/2020,08:43:49,TEMP=26.4,BA=5.56,STAT.D=6.0,ExtBa=13.90
23/09/2020,08:58:50,TEMP=27.0,BA=5.60,STAT.D=6.0,ExtBa=14.40
23/09/2020,09:13:49,TEMP=27.0,BA=5.60,STAT.D=6.0,ExtBa=14.40
23/09/2020,09:28:51,TEMP=27.3,BA=5.60,STAT.F,ExtBa=14.20
23/09/2020,09:43:50,TEMP=27.8,BA=5.48,STAT.D=6.0,ExtBa=13.90
23/09/2020,09:58:50,TEMP=27.8,BA=5.60,STAT.D=6.0,ExtBa=13.90
23/09/2020,10:13:50,TEMP=27.9,BA=5.60,STAT.D=6.0,ExtBa=13.70
23/09/2020,10:28:51,TEMP=28.1,BA=5.60,STAT.F,ExtBa=13.60
23/09/2020,10:43:50,TEMP=28.4,BA=5.44,STAT.D=6.0,ExtBa=13.20
23/09/2020,10:58:50,TEMP=29.1,BA=5.60,STAT.D=6.0,ExtBa=13.10
23/09/2020,11:13:50,TEMP=30.1,BA=5.60,STAT.D=6.0,ExtBa=13.00
23/09/2020,11:28:51,TEMP=30.5,BA=5.56,STAT.F,ExtBa=12.80
23/09/2020,11:43:49,TEMP=30.0,BA=5.44,STAT.D=6.0,ExtBa=12.80
23/09/2020,11:58:49,TEMP=30.5,BA=5.48,STAT.D=6.0,ExtBa=12.80
23/09/2020,12:13:48,TEMP=30.5,BA=5.48,STAT.D=6.0,ExtBa=12.80
23/09/2020,12:28:51,TEMP=30.2,BA=5.48,STAT.F,ExtBa=12.80
23/09/2020,12:43:49,TEMP=30.1,BA=5.44,STAT.D=6.0,ExtBa=12.80
23/09/2020,12:58:49,TEMP=30.0,BA=5.48,STAT.D=6.0,ExtBa=12.80
23/09/2020,13:13:49,TEMP=30.3,BA=5.48,STAT.D=6.0,ExtBa=12.80
23/09/2020,13:28:51,TEMP=30.2,BA=5.48,STAT.F,ExtBa=12.80
23/09/2020,13:42:10,TEMP=30.1,BA=5.40,STAT.A=6.0,ExtBa=12.70
23/09/2020,13:52:39,TEMP=29.8,BA=5.44,STAT.A=6.0,ExtBa=12.70
23/09/2020,14:05:34,TEMP=29.1,BA=5.44,STAT.A=6.0,ExtBa=12.70
23/09/2020,14:16:22,TEMP=28.5,BA=5.44,STAT.C=6.0,ExtBa=12.70
23/09/2020,14:29:30,TEMP=28.1,BA=5.40,STAT.A=6.0,ExtBa=12.60
23/09/2020,14:33:29,TEMP=28.0,BA=5.40,STAT.A=6.0,ExtBa=12.60
23/09/2020,14:40:24,TEMP=27.7,BA=5.44,STAT.A=6.0,ExtBa=12.60
23/09/2020,14:46:30,TEMP=27.5,BA=5.44,STAT.A=6.0,ExtBa=12.60
23/09/2020,14:51:55,TEMP=27.4,BA=5.44,STAT.B=6.0,ExtBa=12.60
23/09/2020,15:03:11,TEMP=27.2,BA=5.36,STAT.A=6.0,ExtBa=12.60
23/09/2020,15:12:02,TEMP=26.9,BA=5.44,STAT.A=6.0,ExtBa=12.60
23/09/2020,15:26:48,TEMP=26.5,BA=5.40,STAT.A=6.0,ExtBa=12.60
23/09/2020,15:29:43,TEMP=26.5,BA=5.40,STAT.A=6.0,ExtBa=12.60
23/09/2020,15:32:40,TEMP=26.4,BA=5.36,STAT.A=6.0,ExtBa=12.60
23/09/2020,15:36:38,TEMP=26.2,BA=5.36,STAT.A=6.0,ExtBa=12.60